Date,TemperatureHighF,TemperatureAvgF,TemperatureLowF,DewpointHighF,DewpointAvgF,DewpointLowF,HumidityHigh,HumidityAvg,HumidityLow,PressureMaxIn,PressureMinIn,WindSpeedMaxMPH,WindSpeedAvgMPH,GustSpeedMaxMPH,PrecipitationSumIn
2013-1-1,55,42,34,41,37,31,95,85,58,30.21,30.14,9,2,0,0.00
2013-1-2,60,42,31,42,34,29,93,76,41,30.17,30.05,6,2,0,0.00
2013-1-3,61,42,32,44,36,30,93,81,48,30.19,30.09,5,1,0,0.00
2013-1-4,62,45,35,43,37,33,94,78,43,30.22,30.09,5,1,0,0.00
2013-1-5,59,47,37,49,44,35,95,87,70,30.19,29.98,6,1,0,0.04
2013-1-6,55,46,38,48,44,37,96,91,73,30.11,29.96,4,1,0,0.12
2013-1-7,63,47,38,52,44,37,97,88,68,30.18,30.06,4,1,0,0.00
2013-1-8,66,50,40,51,44,39,97,85,56,30.15,30.03,4,1,0,0.00
2013-1-9,58,46,40,51,43,38,97,90,74,30.06,29.93,9,2,0,0.02
2013-1-10,54,44,36,41,37,33,95,78,56,30.11,29.99,9,2,0,0.01
2013-1-11,56,44,32,42,37,30,92,78,56,30.18,30.04,10,2,0,0.00
2013-1-12,54,41,32,38,31,21,95,72,29,30.19,30.06,6,1,0,0.00
2013-1-13,54,38,28,32,27,18,89,68,26,30.21,30.09,5,2,0,0.00
2013-1-14,54,39,28,28,22,15,86,54,22,30.34,30.15,5,2,0,0.00
2013-1-15,58,41,30,34,30,26,87,67,31,30.40,30.32,4,1,0,0.00
2013-1-16,61,43,31,38,32,28,90,70,35,30.36,30.17,5,1,0,0.00
2013-1-17,67,46,33,43,35,30,89,70,33,30.18,30.05,5,2,0,0.00
2013-1-18,69,48,34,44,37,31,92,69,34,30.15,30.04,6,2,0,0.00
2013-1-19,42,42,41,36,36,36,82,82,81,30.14,30.13,2,2,0,0.00
2013-1-20,70,48,36,42,36,33,91,67,27,30.15,30.04,7,1,0,0.00
2013-1-21,68,48,34,44,37,31,91,69,35,30.10,29.99,6,2,0,0.00
2013-1-22,66,50,37,47,40,34,91,71,39,30.02,29.91,4,1,0,0.00
2013-1-23,57,51,47,53,47,41,96,86,75,30.00,29.87,4,0,0,0.13
2013-1-24,61,54,50,54,51,49,97,91,78,30.10,29.97,5,1,0,0.01
2013-1-25,69,57,50,58,53,48,96,87,67,30.11,29.95,7,1,0,0.00
2013-1-26,62,51,40,50,45,37,97,80,52,30.01,29.92,11,3,0,0.00
2013-1-27,62,49,40,42,40,35,93,73,39,30.10,30.00,6,2,0,0.00
2013-1-28,62,54,44,45,44,40,87,70,53,30.21,30.13,9,4,0,0.00
2013-1-29,63,49,41,48,42,39,93,78,55,30.29,30.19,5,2,0,0.00
2013-1-30,72,52,41,48,42,38,93,72,36,30.26,30.17,6,1,0,0.00
2013-1-31,69,51,39,49,43,37,94,76,44,30.21,30.08,6,2,0,0.00
2013-2-1,70,53,40,52,45,39,95,77,45,30.13,30.02,5,1,0,0.00
2013-2-2,61,50,43,53,46,41,96,88,72,30.22,30.12,4,1,0,0.00
2013-2-3,64,50,40,49,43,38,95,80,56,30.18,30.06,6,2,0,0.00
2013-2-4,61,48,40,51,45,38,96,89,68,30.11,29.98,5,1,0,0.00
2013-2-5,59,51,46,48,45,42,94,81,68,30.07,30.00,8,3,0,0.00
2013-2-6,64,49,37,47,41,35,95,78,51,30.12,30.03,7,2,0,0.00
2013-2-7,59,46,37,48,40,35,95,83,52,30.10,29.92,10,2,0,0.13
2013-2-8,57,45,36,44,39,34,96,83,56,29.95,29.86,11,2,0,0.08
2013-2-9,62,46,34,40,32,26,86,64,26,30.02,29.91,6,2,0,0.00
2013-2-10,65,46,32,41,35,29,88,67,35,30.05,29.94,6,1,0,0.00
2013-2-11,68,50,36,39,33,26,88,58,22,30.15,29.99,7,1,0,0.00
2013-2-12,67,48,36,46,39,33,94,74,36,30.28,30.15,7,1,0,0.00
2013-2-13,68,50,38,49,41,35,94,75,38,30.27,30.13,4,1,0,0.00
2013-2-14,74,54,39,48,42,37,95,67,35,30.17,30.06,6,2,0,0.00
2013-2-15,77,57,42,50,43,37,85,64,33,30.18,30.10,6,1,0,0.00
2013-2-16,74,55,42,53,45,40,93,73,44,30.14,29.96,5,1,0,0.00
2013-2-17,69,51,39,49,43,38,96,76,44,29.98,29.87,7,1,0,0.00
2013-2-18,55,46,36,46,40,35,96,80,58,29.98,29.90,11,2,0,0.00
2013-2-19,50,43,34,45,39,32,92,85,76,29.90,29.67,7,2,0,0.34
2013-2-20,65,48,31,44,38,30,93,72,36,29.99,29.77,7,2,0,0.00
2013-2-21,65,50,38,42,37,32,92,66,33,30.10,29.97,9,2,0,0.00
2013-2-22,68,50,35,47,39,31,91,68,34,30.18,30.09,8,2,0,0.00
2013-2-23,64,51,41,47,41,35,91,70,40,30.19,30.08,9,3,0,0.00
2013-2-24,68,51,38,36,30,22,76,51,19,30.20,30.09,7,2,0,0.00
2013-2-25,68,50,37,48,40,31,93,71,44,30.20,30.09,7,2,0,0.00
2013-2-26,72,54,36,41,32,21,93,52,15,30.14,30.05,6,2,0,0.00
2013-2-27,74,54,36,48,40,30,88,62,29,30.29,30.13,6,2,0,0.00
2013-2-28,58,47,42,50,44,40,95,89,74,30.36,30.29,3,1,0,0.00
2013-3-1,78,58,44,56,49,42,96,75,42,30.35,30.14,5,1,0,0.00
2013-3-2,72,58,48,56,50,45,93,75,54,30.16,29.97,4,1,0,0.00
2013-3-3,70,55,43,52,47,41,92,77,46,30.02,29.94,9,2,0,0.00
2013-3-4,63,49,39,49,43,37,95,80,58,30.07,29.97,9,2,0,0.00
2013-3-5,63,50,36,46,42,34,94,76,50,30.00,29.76,13,4,0,0.18
2013-3-6,58,51,38,48,42,36,91,74,54,29.99,29.78,18,5,0,0.29
2013-3-7,61,48,38,46,41,35,94,79,52,29.92,29.76,7,2,0,0.20
2013-3-8,63,51,42,48,44,41,96,78,54,29.98,29.74,14,4,0,0.03
2013-3-9,73,55,43,46,41,37,91,64,28,30.22,29.98,7,2,0,0.00
2013-3-10,76,56,38,50,39,30,93,61,19,30.28,30.16,5,2,0,0.00
2013-3-11,78,56,40,52,43,37,94,68,27,30.18,30.01,6,2,0,0.00
2013-3-12,77,57,42,56,48,40,96,77,41,30.08,29.97,7,1,0,0.00
2013-3-13,84,61,42,58,50,41,97,73,36,30.08,29.95,5,1,0,0.00
2013-3-14,78,58,45,56,47,37,96,72,27,30.08,30.00,6,1,0,0.00
2013-3-15,76,56,42,54,46,38,92,72,41,30.06,29.96,7,1,0,0.00
2013-3-16,79,58,45,56,46,38,95,71,24,30.03,29.94,12,3,0,0.00
2013-3-17,73,57,43,47,43,40,88,63,34,30.07,29.96,7,2,0,0.00
2013-3-18,68,54,40,52,45,39,94,73,54,30.04,29.94,5,2,0,0.00
2013-3-19,75,56,44,53,46,35,92,71,40,30.05,29.97,8,2,0,0.04
2013-3-20,67,56,49,57,51,47,96,83,62,30.05,29.99,13,3,0,0.03
2013-3-21,70,54,42,51,43,39,93,70,38,30.06,29.92,7,2,0,0.00
2013-3-22,73,55,38,47,34,22,93,55,15,30.04,29.93,7,2,0,0.00
2013-3-23,73,56,39,44,35,23,86,53,16,30.06,29.95,5,2,0,0.00
2013-3-24,76,56,41,52,44,38,94,68,36,30.02,29.87,7,2,0,0.00
2013-3-25,69,52,40,51,43,38,95,75,52,29.95,29.85,7,2,0,0.00
2013-3-26,73,56,43,51,45,40,92,69,44,29.93,29.83,6,2,0,0.00
2013-3-27,70,57,46,55,50,43,92,79,55,29.93,29.87,14,2,0,0.00
2013-3-28,75,61,51,58,54,49,96,81,56,29.99,29.92,7,1,0,0.02
2013-3-29,81,62,45,57,52,44,97,73,40,30.00,29.89,7,2,0,0.00
2013-3-30,74,60,53,59,54,50,93,79,48,29.98,29.86,10,2,0,0.09
2013-3-31,70,60,50,59,52,49,96,78,53,29.97,29.89,11,3,0,0.10
2013-4-1,72,59,48,61,52,45,97,79,55,30.06,29.94,9,2,0,0.14
2013-4-2,74,56,44,57,49,43,97,80,51,30.10,29.98,7,2,0,0.00
2013-4-3,82,60,50,57,51,47,93,75,37,30.06,29.87,5,2,0,0.00
2013-4-4,69,59,52,58,54,49,96,83,64,30.04,29.91,10,3,0,0.37
2013-4-5,70,59,49,56,52,46,93,78,56,30.10,30.03,8,2,0,0.00
2013-4-6,70,58,49,57,51,46,95,81,57,30.11,30.04,6,2,0,0.00
2013-4-7,70,58,50,56,51,47,93,78,54,30.09,29.79,11,3,0,0.03
2013-4-8,71,59,47,50,42,37,90,57,31,29.92,29.77,14,5,0,0.00
2013-4-9,80,61,45,46,40,35,81,51,20,30.01,29.92,9,3,0,0.00
2013-4-10,91,68,49,54,47,42,78,52,21,30.09,29.93,9,3,0,0.11
2013-4-11,77,62,48,53,46,41,84,59,31,29.98,29.75,14,4,0,0.00
2013-4-12,80,59,42,56,46,40,95,66,32,29.84,29.73,7,2,0,0.00
2013-4-13,76,56,43,53,44,39,93,65,38,29.83,29.76,10,2,0,0.00
2013-4-14,74,54,39,47,41,37,91,66,31,29.86,29.78,10,3,0,0.00
2013-4-15,64,52,44,48,41,37,90,67,44,29.88,29.78,22,6,0,0.00
2013-4-16,72,54,35,46,36,28,92,56,20,30.06,29.88,9,3,0,0.00
2013-4-17,75,58,45,39,34,26,67,44,17,30.20,30.06,8,3,0,0.00
2013-4-18,81,62,43,45,35,29,76,43,15,30.19,30.08,7,2,0,0.00
2013-4-19,86,63,45,56,47,39,94,60,24,30.15,29.97,8,2,0,0.00
2013-4-20,86,65,47,54,44,37,89,53,20,30.03,29.87,6,2,0,0.00
2013-4-21,92,68,46,56,43,34,93,52,13,29.96,29.81,5,2,0,0.00
2013-4-22,94,71,50,55,44,34,81,46,13,29.88,29.73,7,2,0,0.00
2013-4-23,87,65,48,48,38,17,85,49,8,29.85,29.75,7,2,0,0.00
2013-4-24,77,60,44,55,49,42,94,71,45,29.86,29.73,10,2,0,0.00
2013-4-25,76,59,46,56,49,44,96,73,47,30.05,29.86,12,3,0,0.00
2013-4-26,77,59,45,54,49,43,94,71,44,30.15,30.05,7,2,0,0.00
2013-4-27,80,60,46,57,50,43,92,72,45,30.15,29.99,6,2,0,0.00
2013-4-28,93,65,45,59,52,43,95,68,29,30.00,29.77,7,2,0,0.00
2013-4-29,96,72,52,60,50,44,89,54,18,29.80,29.65,7,2,0,0.00
2013-4-30,88,67,48,57,45,34,89,52,15,29.76,29.68,7,2,0,0.00
2013-5-1,96,71,51,47,30,8,63,31,5,29.99,29.75,8,2,0,0.00
2013-5-2,97,73,50,44,32,16,71,32,6,30.06,29.97,6,2,0,0.00
2013-5-3,96,73,52,53,34,21,56,29,7,30.00,29.70,6,2,0,0.00
2013-5-4,94,71,51,58,47,34,74,47,15,29.70,29.45,10,3,0,0.00
2013-5-5,72,62,55,52,49,46,73,62,48,29.70,29.50,17,6,0,0.00
2013-5-6,74,63,50,54,50,46,88,65,46,29.86,29.71,11,3,0,0.00
2013-5-7,77,64,51,57,51,47,85,64,43,29.96,29.86,10,2,0,0.00
2013-5-8,72,59,49,54,50,46,93,74,51,30.08,29.96,9,3,0,0.00
2013-5-9,74,60,49,54,50,45,91,71,47,30.11,30.00,9,4,0,0.00
2013-5-10,81,62,48,58,52,46,92,71,42,30.12,30.01,9,2,0,0.00
2013-5-11,86,68,51,62,55,48,90,67,39,30.08,29.93,6,2,0,0.00
2013-5-12,89,68,50,64,53,45,96,63,25,30.06,29.93,7,2,0,0.00
2013-5-13,85,65,47,60,52,44,95,66,38,30.02,29.87,10,2,0,0.00
2013-5-14,81,64,48,57,48,42,93,61,32,29.96,29.85,10,2,0,0.00
2013-5-15,72,58,45,51,46,42,89,68,41,30.00,29.93,9,3,0,0.00
2013-5-16,75,61,52,57,52,48,88,73,49,29.96,29.89,8,3,0,0.00
2013-5-17,74,59,46,52,47,43,92,67,41,30.01,29.90,10,4,0,0.00
2013-5-18,81,62,43,55,48,41,95,64,35,30.06,29.99,9,3,0,0.00
2013-5-19,91,68,47,55,44,39,88,48,18,30.04,29.86,8,2,0,0.00
2013-5-20,96,70,48,56,40,24,81,43,8,29.92,29.82,12,2,0,0.00
2013-5-21,74,60,50,55,46,38,88,62,35,29.92,29.85,11,4,0,0.00
2013-5-22,71,57,46,42,39,30,79,54,22,29.94,29.83,9,4,0,0.00
2013-5-23,71,57,45,48,42,38,80,60,39,29.92,29.83,14,4,0,0.00
2013-5-24,76,57,41,50,43,37,92,64,32,29.93,29.87,12,3,0,0.00
2013-5-25,70,56,43,50,46,40,93,71,46,29.98,29.89,17,4,0,0.00
2013-5-26,74,62,52,56,52,49,88,73,50,30.05,29.97,11,4,0,0.00
2013-5-27,69,61,51,57,53,48,91,77,61,30.05,29.90,8,3,0,0.00
2013-5-28,75,63,54,60,54,47,92,74,49,29.90,29.83,10,3,0,0.00
2013-5-29,74,63,52,57,51,44,80,67,47,29.88,29.81,10,4,0,0.00
2013-5-30,83,62,44,54,43,34,92,55,18,29.90,29.84,9,2,0,0.00
2013-5-31,96,69,45,55,45,38,89,51,14,29.93,29.80,8,2,0,0.00
2013-6-1,100,74,50,60,49,37,89,51,12,29.84,29.65,7,2,0,0.00
2013-6-2,87,66,51,58,52,47,85,64,33,29.69,29.56,6,2,0,0.00
2013-6-3,87,66,50,58,53,47,94,67,36,29.75,29.63,7,2,0,0.00
2013-6-4,81,65,51,58,53,48,91,69,44,29.85,29.74,6,2,0,0.00
2013-6-5,86,64,52,57,53,49,90,69,38,29.89,29.79,7,2,0,0.00
2013-6-6,83,66,54,60,55,49,87,70,44,29.85,29.74,6,3,0,0.00
2013-6-7,100,70,54,64,58,50,90,69,31,29.78,29.61,5,2,0,0.00
2013-6-8,92,72,54,63,57,52,92,65,37,29.69,29.58,6,2,0,0.00
2013-6-9,83,66,54,61,56,52,92,71,47,29.77,29.69,15,4,0,0.00
2013-6-10,75,63,54,56,53,49,87,70,52,29.83,29.73,14,4,0,0.00
2013-6-11,79,65,53,58,54,48,89,69,47,29.88,29.78,7,2,0,0.00
2013-6-12,86,65,47,58,46,39,89,56,20,29.92,29.81,13,3,0,0.00
2013-6-13,87,66,44,55,46,36,91,54,18,30.00,29.89,7,2,0,0.00
2013-6-14,94,70,48,57,44,36,89,49,14,29.90,29.69,9,2,0,0.00
2013-6-15,82,63,46,57,50,44,94,66,34,29.93,29.74,7,2,0,0.00
2013-6-16,85,66,47,57,51,45,95,63,35,29.99,29.92,9,3,0,0.00
2013-6-17,78,63,48,59,53,46,91,71,50,30.01,29.94,13,3,0,0.00
2013-6-18,71,61,50,54,51,48,95,72,52,29.95,29.91,20,5,0,0.00
2013-6-19,80,64,51,53,49,43,81,60,33,29.96,29.91,9,4,0,0.00
2013-6-20,86,64,46,56,47,39,91,59,20,29.92,29.84,12,3,0,0.00
2013-6-21,90,66,47,59,48,42,93,58,20,29.89,29.81,10,2,0,0.00
2013-6-22,94,69,49,61,51,43,92,59,17,29.83,29.74,11,4,0,0.00
2013-6-23,77,66,56,62,58,52,89,75,57,29.79,29.69,8,3,0,0.00
2013-6-24,72,64,60,62,60,57,92,85,71,29.79,29.68,7,2,0,0.00
2013-6-25,81,70,63,66,62,58,89,77,61,29.87,29.77,10,4,0,0.00
2013-6-26,90,74,60,68,63,58,94,71,45,29.94,29.85,7,2,0,0.00
2013-6-27,99,76,57,67,59,54,96,62,24,29.97,29.89,6,2,0,0.00
2013-6-28,108,80,57,67,58,49,91,54,17,29.92,29.77,7,2,0,0.00
2013-6-29,105,80,58,66,57,50,87,53,17,29.82,29.68,8,2,0,0.00
2013-6-30,100,77,56,65,56,51,88,56,21,29.74,29.65,6,2,0,0.00
2013-7-1,100,76,57,67,60,54,93,61,25,29.74,29.68,7,2,0,0.00
2013-7-2,94,76,62,67,61,57,87,64,39,29.80,29.71,6,2,0,0.00
2013-7-3,95,76,62,66,62,57,88,65,35,29.80,29.64,6,2,0,0.00
2013-7-4,100,78,63,67,59,47,86,56,21,29.67,29.56,6,2,0,0.00
2013-7-5,84,66,54,57,52,47,84,62,38,29.71,29.60,11,3,0,0.00
2013-7-6,86,64,50,58,53,48,93,72,38,29.71,29.60,6,2,0,0.00
2013-7-7,85,68,54,60,56,51,87,67,42,29.75,29.65,7,2,0,0.00
2013-7-8,85,66,54,60,56,51,92,74,42,29.87,29.75,7,2,0,0.00
2013-7-9,94,72,54,64,59,52,93,67,35,29.92,29.80,5,2,0,0.00
2013-7-10,90,68,51,61,56,49,94,69,38,29.88,29.76,7,2,0,0.00
2013-7-11,87,67,55,59,55,50,86,68,39,29.84,29.75,7,3,0,0.00
2013-7-12,93,68,55,59,55,50,87,66,26,29.83,29.75,7,2,0,0.00
2013-7-13,93,69,50,61,53,45,94,64,20,29.86,29.76,6,2,0,0.00
2013-7-14,84,66,50,60,54,47,93,70,42,29.90,29.77,6,2,0,0.00
2013-7-15,85,65,53,59,54,49,91,70,39,29.82,29.70,9,3,0,0.00
2013-7-16,79,63,49,58,53,47,94,74,47,29.94,29.76,8,3,0,0.00
2013-7-17,84,66,53,60,56,49,89,70,44,30.01,29.91,6,2,0,0.00
2013-7-18,94,70,51,62,56,49,91,66,28,29.97,29.82,8,2,0,0.00
2013-7-19,89,68,53,61,56,50,92,69,36,29.86,29.71,7,2,0,0.00
2013-7-20,86,66,52,60,56,49,91,71,41,29.76,29.61,7,2,0,0.00
2013-7-21,82,68,54,61,56,50,90,70,46,29.77,29.65,6,2,0,0.00
2013-7-22,82,67,55,63,58,52,93,75,52,29.85,29.76,7,2,0,0.00
2013-7-23,80,69,60,63,59,56,89,74,51,29.89,29.83,6,2,0,0.00
2013-7-24,89,71,56,64,59,54,95,69,41,29.88,29.78,6,2,0,0.00
2013-7-25,86,68,52,62,57,50,94,71,44,29.92,29.83,8,2,0,0.00
2013-7-26,84,69,59,63,58,55,88,71,46,29.99,29.88,7,3,0,0.00
2013-7-27,81,68,59,62,58,54,88,72,50,29.93,29.75,9,3,0,0.00
2013-7-28,82,68,55,60,57,51,88,70,46,29.77,29.67,7,2,0,0.00
2013-7-29,82,65,50,60,54,48,94,70,45,29.90,29.74,8,2,0,0.00
2013-7-30,82,67,55,60,56,51,88,69,47,29.99,29.90,7,2,0,0.00
2013-7-31,87,67,53,59,54,47,87,65,26,29.98,29.90,7,2,0,0.00
2013-8-1,83,64,49,60,51,46,94,66,36,29.99,29.86,8,2,0,0.00
2013-8-2,86,65,49,60,52,46,95,68,32,29.89,29.78,7,2,0,0.00
2013-8-3,83,66,53,60,55,49,90,69,45,29.88,29.78,7,2,0,0.00
2013-8-4,81,65,56,59,55,52,88,72,46,29.91,29.81,6,2,0,0.00
2013-8-5,80,66,56,59,55,51,86,70,47,29.92,29.82,8,2,0,0.00
2013-8-6,82,65,55,60,55,52,87,71,45,29.94,29.86,9,3,0,0.00
2013-8-7,79,66,54,59,56,51,90,71,49,30.00,29.91,10,3,0,0.00
2013-8-8,79,64,54,60,55,51,92,76,50,29.93,29.82,9,3,0,0.00
2013-8-9,82,65,50,61,55,48,95,73,48,29.90,29.80,9,2,0,0.00
2013-8-10,83,67,57,63,57,53,88,72,46,29.95,29.86,10,3,0,0.00
2013-8-11,87,67,56,62,56,52,91,71,36,29.93,29.82,7,2,0,0.00
2013-8-12,92,70,56,63,56,48,92,67,23,29.89,29.80,8,3,0,0.00
2013-8-13,95,70,51,64,55,49,95,65,27,29.88,29.77,7,2,0,0.00
2013-8-14,87,68,52,62,56,49,92,69,34,29.88,29.80,7,2,0,0.00
2013-8-15,92,72,57,68,62,55,96,73,43,29.86,29.79,8,2,0,0.00
2013-8-16,92,74,59,66,58,40,94,64,20,29.88,29.81,11,2,0,0.00
2013-8-17,88,68,56,63,57,51,90,71,42,29.90,29.76,9,2,0,0.00
2013-8-18,97,74,57,68,61,55,94,68,37,29.77,29.64,6,2,0,0.00
2013-8-19,97,76,60,67,61,56,85,64,35,29.80,29.67,7,2,0,0.00
2013-8-20,92,73,58,65,59,52,90,66,36,29.78,29.68,7,2,0,0.00
2013-8-21,86,68,56,62,57,52,90,70,44,29.83,29.72,7,3,0,0.00
2013-8-22,89,68,54,62,56,51,91,69,38,29.87,29.76,8,3,0,0.00
2013-8-23,86,68,54,62,55,50,91,68,38,29.83,29.70,8,2,0,0.00
2013-8-24,93,69,52,64,57,50,96,70,38,29.80,29.74,8,2,0,0.00
2013-8-25,93,73,60,67,62,56,93,71,41,29.84,29.75,11,3,0,0.00
2013-8-26,91,71,56,64,57,49,88,65,37,29.90,29.79,8,3,0,0.00
2013-8-27,92,69,52,63,56,49,94,67,35,29.81,29.70,8,2,0,0.00
2013-8-28,97,72,54,68,60,52,96,70,35,29.84,29.74,10,2,0,0.00
2013-8-29,94,75,62,68,62,58,88,68,37,29.94,29.84,7,2,0,0.00
2013-8-30,105,76,57,69,60,53,96,64,23,29.94,29.79,7,2,0,0.00
2013-8-31,95,73,54,65,57,49,94,62,28,29.87,29.77,8,2,0,0.00
2013-9-1,92,73,59,64,59,55,90,66,34,29.84,29.75,7,2,0,0.00
2013-9-2,91,72,61,68,62,58,89,72,46,29.84,29.76,6,2,0,0.00
2013-9-3,90,70,53,63,56,51,95,67,28,29.89,29.82,15,2,0,0.00
2013-9-4,90,69,53,66,57,51,96,70,33,29.93,29.84,11,4,0,0.00
2013-9-5,86,70,56,62,57,51,95,68,41,29.91,29.85,13,4,0,0.00
2013-9-6,104,76,52,65,52,47,95,53,16,29.89,29.70,8,2,0,0.00
2013-9-7,108,79,57,64,52,42,75,45,12,29.76,29.67,7,2,0,0.00
2013-9-8,98,73,54,66,59,51,93,65,30,29.76,29.63,5,1,0,0.00
2013-9-9,100,74,55,67,60,53,94,68,28,29.70,29.58,7,2,0,0.00
2013-9-10,92,71,57,66,59,54,94,72,37,29.78,29.62,10,2,0,0.00
2013-9-11,87,68,53,63,57,51,96,72,44,29.87,29.77,9,2,0,0.00
2013-9-12,87,69,57,65,59,55,92,74,45,29.87,29.75,8,2,0,0.00
2013-9-13,93,69,55,64,56,50,94,68,29,29.80,29.66,7,2,0,0.00
2013-9-14,82,65,53,61,55,51,95,73,42,29.73,29.62,9,3,0,0.00
2013-9-15,92,69,55,62,57,52,91,70,36,29.76,29.69,9,3,0,0.00
2013-9-16,93,69,55,65,58,53,96,72,34,29.79,29.69,9,3,0,0.00
2013-9-17,80,66,54,58,55,49,89,69,41,29.79,29.73,14,4,0,0.00
2013-9-18,97,69,50,61,48,39,93,57,14,29.81,29.69,8,2,0,0.00
2013-9-19,101,72,50,60,48,38,92,53,14,29.75,29.61,6,2,0,0.00
2013-9-20,82,66,50,63,56,45,94,72,51,29.77,29.67,9,2,0,0.00
2013-9-21,69,63,54,64,58,52,94,85,72,29.79,29.69,11,3,0,0.00
2013-9-22,84,65,50,62,54,49,97,72,39,29.89,29.78,7,2,0,0.00
2013-9-23,93,70,51,61,56,49,94,65,28,29.91,29.80,6,2,0,0.00
2013-9-24,84,66,55,57,54,50,89,66,39,29.89,29.81,14,4,0,0.00
2013-9-25,79,63,54,52,49,45,83,63,36,29.83,29.71,12,5,0,0.00
2013-9-26,89,64,45,48,42,34,87,53,16,29.87,29.72,10,2,0,0.00
2013-9-27,91,66,47,52,39,26,79,45,10,30.00,29.87,6,2,0,0.00
2013-9-28,96,68,46,56,44,35,86,49,14,29.98,29.87,6,1,0,0.00
2013-9-29,88,68,51,63,57,49,95,71,42,30.01,29.92,7,2,0,0.00
2013-9-30,86,68,56,65,59,46,95,74,46,29.96,29.84,7,1,0,0.00
2013-10-1,85,64,50,55,50,44,88,62,35,29.91,29.79,9,2,0,0.00
2013-10-2,90,64,49,59,48,39,90,60,21,29.90,29.81,9,2,0,0.00
2013-10-3,85,65,45,48,40,34,80,46,17,29.98,29.83,9,3,0,0.00
2013-10-4,92,69,50,43,34,23,62,33,9,29.98,29.87,8,2,0,0.00
2013-10-5,97,70,50,42,30,18,50,29,6,30.10,29.97,5,1,0,0.00
2013-10-6,96,69,48,53,37,23,60,36,8,30.02,29.87,5,1,0,0.00
2013-10-7,95,69,51,53,37,18,60,35,8,29.89,29.75,6,2,0,0.00
2013-10-8,88,63,47,56,46,40,92,59,23,29.80,29.61,7,2,0,0.00
2013-10-9,81,59,44,53,44,40,93,63,30,29.64,29.53,6,2,0,0.00
2013-10-10,85,61,46,55,47,40,87,64,34,29.90,29.64,6,2,0,0.00
2013-10-11,79,59,47,56,49,43,90,73,41,29.99,29.87,6,2,0,0.00
2013-10-12,81,59,43,57,48,41,95,72,32,29.92,29.80,8,2,0,0.00
2013-10-13,87,63,46,58,46,40,95,61,21,29.95,29.83,6,2,0,0.00
2013-10-14,90,64,45,50,40,33,84,48,14,30.02,29.87,5,2,0,0.00
2013-10-15,92,66,47,47,36,30,71,40,12,29.94,29.82,5,1,0,0.00
2013-10-16,92,67,47,48,36,26,63,38,11,29.98,29.87,7,1,0,0.00
2013-10-17,94,66,47,50,37,26,66,39,11,29.97,29.84,6,1,0,0.00
2013-10-18,89,63,45,59,47,33,88,60,27,29.95,29.85,6,1,0,0.00
2013-10-19,92,64,46,59,49,42,94,65,21,29.97,29.86,5,1,0,0.00
2013-10-20,83,59,44,60,49,42,95,75,39,29.91,29.79,4,1,0,0.00
2013-10-21,80,58,44,57,50,42,95,78,44,29.91,29.80,6,1,0,0.00
2013-10-22,82,58,43,60,50,41,95,79,46,29.92,29.80,5,1,0,0.00
2013-10-23,76,56,44,59,50,42,96,83,55,29.88,29.79,6,1,0,0.00
2013-10-24,72,56,46,54,49,44,93,80,53,30.04,29.88,5,1,0,0.00
2013-10-25,80,58,44,57,49,42,97,76,42,30.08,29.97,5,1,0,0.00
2013-10-26,87,61,44,60,50,42,96,71,31,30.06,29.90,5,1,0,0.00
2013-10-27,72,54,43,55,48,40,95,79,52,29.94,29.59,26,5,0,0.00
2013-10-28,68,59,53,50,48,47,87,69,49,29.75,29.63,9,4,0,0.00
2013-10-29,68,55,44,52,47,41,93,78,50,29.96,29.75,9,1,0,0.00
2013-10-30,78,56,41,54,45,39,96,72,33,30.06,29.96,5,1,0,0.00
2013-10-31,85,58,42,52,44,39,90,65,24,30.09,29.95,4,1,0,0.00
2013-11-1,85,61,44,51,44,40,89,61,22,30.04,29.89,4,1,0,0.00
2013-11-2,80,58,45,56,47,41,87,69,41,29.92,29.81,8,1,0,0.00
2013-11-3,74,55,41,51,39,27,94,63,19,29.95,29.81,6,1,0,0.00
2013-11-4,78,56,38,47,35,28,87,53,18,29.96,29.81,7,1,0,0.00
2013-11-5,84,61,44,45,36,32,67,44,17,30.11,29.96,6,1,0,0.00
2013-11-6,84,61,45,52,39,35,73,50,18,30.16,30.05,4,1,0,0.00
2013-11-7,84,61,48,51,44,39,82,56,25,30.07,29.96,5,1,0,0.00
2013-11-8,83,64,46,59,50,42,95,62,32,29.99,29.84,4,0,0,0.00
2013-11-9,80,57,43,56,47,40,95,73,38,29.94,29.85,5,1,0,0.00
2013-11-10,73,54,43,56,48,42,96,82,52,30.03,29.92,5,1,0,0.00
2013-11-11,74,59,49,56,51,47,94,78,54,30.06,29.97,5,1,0,0.00
2013-11-12,84,62,50,57,50,44,85,68,33,30.16,30.04,5,1,0,0.00
2013-11-13,88,61,47,59,51,45,96,74,31,30.15,29.99,5,1,0,0.00
2013-11-14,75,56,46,58,49,42,95,80,56,30.01,29.77,5,1,0,0.00
2013-11-15,78,56,42,50,42,36,91,63,24,29.78,29.61,6,2,0,0.00
2013-11-16,75,53,40,52,45,38,94,77,39,29.83,29.67,10,2,0,0.00
2013-11-17,74,53,42,54,46,41,97,78,45,29.99,29.83,8,1,0,0.00
2013-11-18,70,52,42,52,45,40,94,80,49,30.05,29.98,6,1,0,0.00
2013-11-19,69,56,47,56,52,44,96,86,59,30.00,29.84,4,1,0,0.00
2013-11-20,66,56,47,64,54,46,98,94,82,29.83,29.73,4,1,0,0.00
2013-11-21,71,55,43,53,44,34,97,73,29,29.89,29.79,6,1,0,0.00
2013-11-22,78,56,40,38,28,18,76,41,13,29.94,29.80,7,2,0,0.00
2013-11-23,76,54,40,45,37,32,90,59,22,30.01,29.85,5,1,0,0.00
2013-11-24,73,52,39,50,42,37,94,74,39,30.15,30.00,4,1,0,0.00
2013-11-25,75,52,39,50,42,37,94,73,37,30.24,30.14,4,1,0,0.00
2013-11-26,72,53,42,52,44,40,94,74,42,30.16,29.92,5,0,0,0.00
2013-11-27,75,55,41,52,46,40,94,73,42,29.92,29.73,5,1,0,0.00
2013-11-28,78,56,45,51,45,40,91,70,34,29.98,29.76,5,1,0,0.00
2013-11-29,78,55,41,54,44,38,90,70,37,30.12,29.97,4,1,0,0.00
2013-11-30,76,54,42,56,46,39,93,75,39,30.18,30.09,5,1,0,0.00
2013-12-1,79,56,41,57,46,39,94,73,38,30.26,30.12,4,1,0,0.00
2013-12-2,75,53,41,56,47,39,95,80,46,30.13,29.88,5,1,0,0.00
2013-12-3,59,50,36,54,41,31,96,73,47,29.88,29.75,8,2,0,0.00
2013-12-4,61,42,30,36,27,24,81,60,26,29.99,29.84,5,1,0,0.00
2013-12-5,61,40,26,28,22,17,83,55,20,30.09,29.98,6,1,0,0.00
2013-12-6,61,45,31,48,37,28,92,76,44,30.10,29.82,15,3,0,0.00
2013-12-7,56,43,35,47,39,33,94,85,43,30.04,29.82,7,2,0,0.00
2013-12-10,56,44,34,33,29,26,75,59,37,30.17,30.10,4,1,0,0.00
2013-12-11,60,42,30,35,30,26,87,65,32,30.16,30.07,6,1,0,0.00
2013-12-12,64,44,31,40,33,27,86,68,36,30.18,30.06,5,1,0,0.00
2013-12-13,62,45,35,46,37,32,91,75,44,30.25,30.13,5,1,0,0.00
2013-12-14,65,46,34,45,36,31,91,70,38,30.32,30.21,5,1,0,0.00
2013-12-15,65,47,34,44,36,31,89,70,39,30.27,30.14,7,1,0,0.00
2013-12-16,71,51,37,44,37,32,82,62,28,30.14,30.02,4,1,0,0.00
2013-12-17,69,51,40,45,39,35,83,65,38,30.08,29.92,4,1,0,0.00
2013-12-18,62,50,40,50,42,35,93,77,58,29.92,29.68,6,2,0,0.00
2013-12-19,63,49,37,45,38,26,93,66,40,29.84,29.62,11,2,0,0.00
2013-12-20,65,47,34,28,21,1,63,42,8,29.92,29.82,5,1,0,0.00
2013-12-21,66,49,38,51,42,28,96,78,55,29.98,29.86,4,1,0,0.00
2013-12-22,71,51,40,50,40,38,96,71,33,30.18,29.98,4,1,0,0.00
2013-12-23,67,50,39,49,40,36,90,73,45,30.30,30.18,5,1,0,0.00
2013-12-24,74,52,40,50,41,35,88,69,35,30.24,30.09,5,1,0,0.00
2013-12-25,70,50,39,46,39,34,85,67,39,30.20,30.09,5,1,0,0.00
2013-12-26,71,50,36,45,39,34,91,69,37,30.17,30.05,5,1,0,0.00
2013-12-27,65,48,37,48,40,35,90,76,49,30.14,30.01,5,1,0,0.00
2013-12-28,69,49,36,46,36,31,93,65,25,30.05,29.92,5,1,0,0.00
2013-12-29,71,51,40,34,27,15,68,44,13,30.08,29.97,5,1,0,0.00
2013-12-30,67,48,37,40,35,28,79,62,30,30.17,30.07,5,1,0,0.00
2013-12-31,65,46,37,49,39,33,92,77,48,30.18,30.05,5,1,0,0.00
2014-1-1,63,47,35,48,39,32,91,74,55,30.13,30.03,5,1,0,0.00
2014-1-2,69,51,38,44,38,33,87,64,38,30.07,29.94,6,1,0,0.00